C/2019 B3 ( PanSTARRS )

Japanese version
Home page
Updated on August 31, 2019

---------------------------------------------------------------------

* Profile

Discovery Date January 24, 2019
Magnitude 19.6 mag
Discoverer Pan-STARRS 1 telescope (Haleakala)

* Pictures

* Orbital Elements

Epoch 2021 Jan. 26.0 TT = JDT 2459240.5
T 2021 Jan. 19.98786 TT                                 Williams
q   6.8236304            (2000.0)            P               Q
z  -0.0003593      Peri.  263.90360     -0.11700599     +0.99281326
 +/-0.0000116      Node   358.43030     +0.00242444     -0.02501659
e   1.0024518      Incl.   66.53876     -0.99312825     -0.11702995
From 71 observations 2019 Jan. 24-June 23, mean residual 0".4.

* Magnitudes Graph

        m1 = 5.5 + 5 log d + 10.0 log r

---------------------------------------------------------------------

The orbital elements are published on M.P.E.C. 2019-Q135.
The magnitudes graphs are made with Comet for Windows.

---------------------------------------------------------------------

Copyright(C) Seiichi Yoshida (comet@aerith.net). All rights reserved.